SCP
0 0 0 0 0 0 0 0 0 0 0 0 0 0 0 0 0 0 0 0 0 0 0 0 0 0 0 0 0 0 0 0 0 0 0 0 0 0 0 0 0 0 0 0 0
0 0 0 0 0 0 0 0 0 0 0 0 0 0 0 0 0 0 -0 0 0 0 0 0 0 0 0 0 0 0 0 0 0 0 0 0 0 0 0 0 0 0 0 0 0
0 0 0 0 0 0 0 0 0 0 0 0 0 0 0 0 0 -0 -0 0 0 0 0 0 0 0 0 0 0 0 0 0 0 0 0 0 0 0 0 0 0 0 0 0 0
0 0 0 0 0 0 0 0 0 0 0 0 0 0 0 0 0 0 0 0 0 0 0 0 0 0 0 0 0 0 0 0 0 0 0 0 0 0 0 0 0 0 0 0 0
0 0 0 0 0 0 0 0 0 0 0 0 0 0 0 0 0 0 0 0 0 0 0 0 0 0 0 0 0 0 0 0 0 0 0 0 0 0 0 0 0 0 0 0 0
0 0 0 0 0 0 0 0 0 0 0 0 0 0 0 0 0 0 0 0 0 0 0 0 0 0 0 0 0 0 0 0 0 0 0 0 0 0 0 0 0 0 0 0 0
0 0 0 0 0 0 0 0 0 0 0 0 0 0 0 0 0 0 0 0 0 0 0 0 0 0 0 0 0 0 0 0 0 0 0 0 0 0 0 0 0 0 0 0 0
0 0 0 0 0 0 0 0 0 0 0 0 0 0 0 0 0 0 0 0 0 0 0 0 0 0 0 0 0 0 0 0 0 0 0 0 0 0 0 0 0 0 0 0 0
0 0 0 0 0 0 0 0 0 0 0 0 0 0 0 0 0 0 0 0 0 0 0 0 0 0 0 0 0 0 0 0 0 0 0 0 0 0 0 0 0 0 0 0 0
0 0 0 0 0 0 0 0 0 0 0 0 0 0 0 0 0 0 0 0 0 0 0 0 0 0 0 0 0 0 0 0 0 0 0 0 0 0 0 0 0 0 0 0 0
0 0 0 0 0 0 0 0 0 0 0 0 0 0 0 0 0 0 0 0 0 0 0 0 0 0 0 0 0 0 0 -0 0 0 0 0 0 0 0 0 0 0 0 0 0
0 0 0 0 0 0 0 0 0 0 0 0 0 0 0 0 0 0 0 0 0 0 0 0 0 -0 0 -0 0 0 0 0 0 0 0 0 0 0 0 0 0 0 0 0 0
0 0 0 0 0 0 0 0 0 0 0 0 0 0 0 0 0 0 0 0 0 0 0 0 0 -0 0 -0 0 0 0 0 0 0 0 0 -0 0 0 0 0 0 0 0 0
0 0 0 0 0 0 0 0 0 0 0 0 0 0 0 0 0 0 0 0 -0 -0 -0 -0 0 -0 0 -0 0 0 0 0 0 0 0 0 -0 0 0 0 0 0 0 0 0
0 0 0 0 0 0 0 0 0 0 0 0 0 0 0 0 0 0 0 -0 -0 -0 -0 -0 -0 0 -0 -0 0 0 0 0 0 0 -0 0 0 0 0 0 0 0 0 0 0
0 0 0 0 0 0 0 0 0 0 0 0 0 0 -0 0 0 -0 -0 -0 -0 -0 -0 0 -0 0 0 0 0 0 0 0 0 0 -0 0 0 -0 0 0 0 0 0 0 0
0 0 0 0 0 0 0 0 0 0 0 0 0 0 0 0 -0 -0 0 -0 -0 0 0 0 -0 -0 0 0 0 0 0 0 0 -0 -0 -0 0 0 0 0 0 0 0 0 0
0 0 0 0 0 0 0 0 0 0 0 0 0 0 0 0 -0 0 0 -0 -0 -0 0 -0 -0 0 0 0 0 0 0 0 0 0 0 0 0 0 0 0 0 0 0 0 0
0 0 0 0 0 0 0 0 0 0 0 -0 -0 0 0 -0 -0 -0 -0 -0 -0 -0 0 0 0 0 0 0 0 0 0 0 -0 0 0 0 0 0 0 0 0 0 0 0 0
0 0 0 0 0 0 0 0 0 0 0 0 0 0 0 0 -0 0 -0 -0 0 0 0 0 0 0 -0 0 0 0 0 0 0 0 0 0 0 0 0 0 0 0 0 0 0
0 0 0 0 0 0 0 0 0 0 0 0 0 0 0 -0 -0 -0 -0 0 -0 -0 0 0 0 0 0 0 0 0 0 0 0 0 0 0 0 0 0 0 0 0 0 0 0
0 0 0 0 0 0 0 0 0 0 0 0 0 0 0 -0 0 -0 -0 -0 0 -0 0 0 0 0 0 0 0 0 0 0 0 0 0 0 0 0 0 0 0 0 0 0 0
0 0 0 0 0 0 0 0 0 0 0 0 0 0 0 -0 -0 -0 -0 -0 -0 0 0 0 0 0 0 0 0 0 0 0 0 0 0 0 0 0 0 0 0 0 0 0 0
0 0 0 0 0 0 0 0 0 0 0 0 0 0 0 -0 -0 -0 -0 -0 -0 0 0 0 0 0 0 0 0 0 0 0 0 0 0 0 0 0 0 0 0 0 0 0 0
0 0 0 0 0 0 0 0 0 0 0 0 0 0 0 -0 0 -0 0 -0 0 0 0 0 0 0 0 0 0 0 0 0 0 0 0 0 0 0 0 0 0 0 0 0 0
0 0 0 0 0 0 0 0 0 0 0 0 0 -0 0 -0 -0 -0 -0 -0 -0 0 0 0 0 0 0 0 0 0 0 0 0 0 0 0 0 0 0 0 0 0 0 0 0
0 0 0 0 0 0 0 0 0 0 -0 0 0 -0 0 0 0 -0 -0 -0 0 0 0 0 0 0 0 0 0 0 0 0 0 0 0 0 0 0 0 0 0 0 0 0 0
Wind_Speed_500mb
23 24 26 26 21 21 23 26 28 29 30 29 30 33 36 36 38 40 46 39 39 33 38 42 32 27 24 25 28 23 11 26 22 17 7 2 3 10 7 15 14 19 11 16 65
25 27 27 26 26 24 26 26 25 27 29 30 28 31 34 38 42 52 27 20 25 34 36 32 37 24 21 19 23 18 19 38 10 23 7 7 10 23 8 10 20 13 19 24 70
27 27 28 25 27 25 27 27 25 29 30 30 30 32 35 37 46 4 10 12 21 18 37 31 26 27 24 32 27 18 27 23 25 39 27 7 18 16 14 8 24 26 25 61 80
25 25 25 25 25 25 27 26 27 29 29 29 29 30 32 30 12 1 18 20 27 18 17 33 32 16 10 22 39 23 25 39 29 31 14 15 13 9 26 22 36 31 24 73 88
21 17 22 20 22 24 25 25 26 26 27 27 25 26 27 15 47 28 24 27 28 21 20 21 35 33 26 15 31 40 24 38 50 49 32 33 27 20 26 41 20 38 47 76 80
11 13 17 17 20 22 22 23 23 23 23 24 24 24 26 24 22 25 31 29 23 15 15 17 15 38 35 35 29 20 46 49 32 46 39 38 29 30 32 46 42 53 36 90 85
11 11 14 15 19 20 19 19 20 19 21 22 26 26 30 66 32 26 23 24 23 25 30 31 28 22 19 22 46 36 32 24 35 24 18 39 34 49 52 45 39 67 71 79 84
17 15 14 15 16 15 15 17 16 18 22 25 28 25 26 43 20 21 17 29 30 29 32 35 36 36 22 32 28 22 13 27 22 23 21 28 49 38 68 47 39 50 70 76 83
17 14 12 12 13 14 14 15 17 21 25 28 29 20 29 14 25 29 49 55 50 45 44 40 33 33 23 25 25 24 8 27 18 25 15 39 29 32 58 56 46 53 66 76 72
16 15 14 13 13 14 16 20 23 27 23 17 21 16 19 24 57 56 50 33 33 29 30 28 19 13 18 28 28 25 25 10 19 10 22 30 34 14 39 58 54 54 52 65 75
16 15 13 12 13 17 21 20 14 8 13 22 33 33 59 44 50 47 48 26 19 17 10 14 13 30 50 38 40 25 21 31 17 11 10 29 26 32 43 42 42 51 57 60 73
14 14 12 10 14 19 21 15 12 17 25 40 34 39 41 41 29 51 29 10 9 14 8 12 31 43 29 36 42 25 27 21 6 12 6 19 37 40 49 25 42 54 53 69 57
14 11 9 13 15 17 21 23 20 17 12 24 16 28 25 23 23 53 27 17 14 24 26 31 30 23 31 40 45 40 34 23 8 2 19 6 22 32 44 27 48 56 79 74 73
11 10 13 19 8 19 15 24 23 20 7 12 10 9 21 28 15 38 40 20 9 13 25 25 28 33 42 34 27 27 27 16 16 6 9 19 11 30 45 39 28 46 39 62 68
10 13 17 17 14 15 21 24 23 8 8 9 13 16 36 12 32 8 34 27 18 17 9 13 17 30 41 38 36 12 39 20 8 8 2 14 10 7 45 42 30 33 66 61 70
14 17 18 18 15 14 22 23 10 11 11 14 12 16 20 10 10 20 16 18 19 10 16 24 21 12 9 31 32 29 20 13 6 4 8 21 24 13 36 65 41 29 55 64 63
16 20 20 19 14 19 22 12 9 8 9 17 11 16 21 10 13 9 12 12 9 14 9 6 2 4 17 27 26 15 12 6 6 4 11 5 21 9 21 52 45 24 46 53 61
20 21 20 20 20 21 21 10 9 6 12 10 12 23 8 15 7 16 19 15 7 23 12 10 1 6 3 4 15 20 10 7 8 2 6 4 13 5 14 45 61 41 51 54 61
23 25 21 19 18 18 9 8 12 11 7 13 21 10 13 9 5 13 9 12 9 23 11 10 6 3 12 10 15 15 9 9 12 4 6 5 4 12 14 30 28 36 45 53 64
28 30 20 16 19 15 7 6 5 7 7 8 2 3 8 13 15 15 11 8 23 23 22 8 9 14 4 14 4 6 19 10 3 6 6 5 5 3 4 22 31 28 40 48 65
27 15 6 20 15 5 5 11 9 7 4 5 5 9 10 10 7 6 14 14 23 31 22 12 9 8 2 9 6 5 7 9 6 6 4 4 2 8 15 11 32 22 36 53 64
14 7 11 16 6 5 2 7 5 5 3 5 4 9 7 9 10 6 6 11 40 34 21 8 10 8 7 13 10 7 8 6 4 7 2 3 3 14 9 10 30 32 37 43 55
13 12 9 16 4 5 11 7 6 4 4 6 5 4 1 7 10 5 8 22 35 20 25 14 8 10 9 7 7 9 10 6 4 2 5 3 3 12 15 20 28 36 41 46 49
9 5 8 9 8 6 2 7 9 8 5 3 7 11 4 7 6 12 22 11 52 21 36 11 7 8 9 7 8 8 12 10 4 4 5 8 5 8 9 17 18 26 35 42 47
4 4 2 6 7 7 3 6 6 8 4 1 5 0 6 6 10 8 11 27 25 31 26 13 11 17 14 7 6 7 16 17 11 7 7 4 7 3 5 11 13 27 33 38 39
4 2 4 7 6 8 4 4 4 8 4 4 4 9 7 6 7 17 20 13 6 23 20 18 7 10 9 18 17 8 15 8 8 8 7 7 11 8 18 24 22 26 35 34 34
2 5 6 1 3 3 4 4 4 10 7 6 4 9 9 10 11 24 26 27 19 14 18 13 15 11 9 11 16 8 12 10 5 7 7 11 7 4 9 12 19 28 29 32 31
Wind_Direction_500mb
294 298 305 311 310 309 298 295 303 308 313 313 315 317 318 316 308 300 293 295 282 278 256 256 261 268 266 242 212 191 220 228 210 196 186 343 293 262 192 145 169 200 249 260 178
308 299 292 287 295 300 298 300 299 298 302 308 308 314 315 314 312 304 303 315 283 262 243 262 261 276 266 234 217 204 223 226 209 225 208 287 314 294 226 182 199 221 233 215 176
297 292 299 293 287 293 291 292 296 294 302 305 305 311 315 319 317 170 74 43 13 340 236 238 255 276 261 252 202 214 238 223 211 235 240 248 295 302 233 249 223 215 201 186 176
302 292 282 288 287 285 288 290 294 293 294 293 298 309 310 314 294 350 288 287 289 298 259 246 252 259 240 242 241 243 226 231 219 224 228 249 276 271 255 233 264 235 224 187 181
301 305 289 286 291 291 292 290 296 292 288 291 295 306 303 284 271 306 289 296 284 274 242 235 244 254 250 272 258 248 239 223 228 231 229 240 250 258 279 279 247 203 211 202 194
299 295 295 300 298 301 297 296 296 290 289 293 298 298 294 265 308 313 300 295 288 262 257 255 256 247 275 265 258 269 235 244 234 225 234 238 249 254 253 278 254 205 208 206 199
10 337 330 322 313 308 305 300 298 292 292 293 302 297 280 272 304 288 291 294 293 261 268 256 264 265 283 261 259 265 237 237 226 221 221 230 247 239 244 261 215 195 195 193 199
11 6 352 332 323 319 315 305 299 297 294 296 299 293 266 303 285 290 307 302 290 285 281 280 271 269 251 274 279 228 226 213 199 197 211 183 248 236 237 234 214 195 185 192 200
18 13 3 353 341 336 323 313 306 294 292 295 290 289 273 304 304 300 299 304 295 277 272 277 256 247 266 259 248 216 227 221 186 191 180 201 245 236 229 220 205 194 193 192 201
26 21 15 12 3 352 338 327 310 297 292 289 270 294 265 302 306 306 310 303 296 287 277 244 226 217 231 233 229 213 218 185 211 197 210 227 225 266 220 206 206 194 196 193 202
22 21 25 20 12 357 345 350 344 311 296 260 270 261 285 308 308 312 327 300 290 254 211 203 222 226 229 253 251 234 216 214 185 209 207 229 247 243 255 214 191 190 194 199 206
21 18 18 17 11 3 5 28 18 315 303 298 282 273 289 305 291 308 321 273 227 240 218 239 237 240 242 249 257 185 192 190 252 207 190 253 244 233 231 241 207 186 185 205 196
14 22 7 347 0 10 6 6 341 325 278 298 283 284 303 298 282 295 292 263 239 259 244 232 236 208 264 240 256 210 215 212 201 305 224 298 278 230 221 234 233 201 197 195 191
4 8 354 352 356 357 346 342 334 326 38 283 326 297 313 313 276 313 298 270 267 288 255 228 230 230 261 232 228 169 193 174 180 182 222 152 280 212 204 215 236 202 189 194 192
353 343 337 345 343 348 327 325 327 329 358 276 294 305 315 274 297 341 312 282 248 264 181 292 245 237 233 210 218 183 171 152 151 199 337 204 238 264 192 202 225 191 198 198 190
344 339 335 334 332 340 335 332 339 41 265 321 313 324 337 286 287 286 301 285 251 238 217 245 248 236 248 194 191 128 113 138 122 153 233 197 197 209 194 201 216 199 186 188 183
342 332 330 340 345 330 336 338 32 124 330 310 325 335 321 298 310 338 315 351 343 315 347 265 219 213 261 151 163 154 147 171 166 152 246 198 186 287 233 189 203 194 192 185 178
329 322 310 324 327 332 334 54 87 236 256 316 322 314 291 0 311 327 329 350 21 339 302 326 346 222 19 293 169 154 172 156 140 211 311 317 204 237 307 196 182 188 184 180 179
325 318 300 313 319 323 313 54 202 204 274 326 320 358 317 347 5 349 347 315 348 357 320 321 265 153 71 280 159 164 151 170 80 236 255 226 266 277 304 170 140 141 160 168 175
321 312 287 306 316 312 75 245 211 223 324 45 69 112 308 315 356 3 316 323 347 341 341 290 293 7 326 343 89 173 164 103 116 242 238 210 128 274 40 156 150 155 165 152 165
324 302 267 320 317 298 138 227 263 271 295 130 208 298 270 305 316 305 306 307 7 335 335 310 303 328 21 14 3 128 117 95 158 220 269 170 55 233 296 150 159 133 139 154 164
319 321 306 328 13 46 132 209 279 298 4 303 209 287 232 309 301 297 310 289 341 335 340 294 313 323 315 313 316 13 58 82 153 266 183 255 62 335 265 113 112 115 134 148 166
312 279 325 341 81 328 314 302 285 318 2 341 286 188 218 310 314 249 321 297 329 337 343 336 331 324 12 2 10 47 0 311 103 352 341 6 35 8 96 90 112 125 134 151 166
329 349 15 43 59 150 292 290 317 307 268 271 286 314 10 320 255 302 321 306 324 346 348 320 294 355 8 324 316 14 342 15 78 55 348 49 349 40 85 111 116 119 137 154 161
332 43 35 310 332 327 330 184 290 322 236 101 325 93 298 295 314 302 323 324 318 8 357 13 349 340 300 312 325 338 3 1 28 44 37 13 101 359 110 120 114 132 145 146 149
348 174 244 270 275 298 332 322 297 332 294 284 163 290 298 282 223 313 333 348 337 332 345 349 338 322 305 356 359 349 324 348 38 11 35 100 62 16 79 116 120 144 151 155 161
275 261 266 177 234 56 247 289 353 342 281 227 79 344 293 264 269 286 287 284 279 322 325 332 341 347 311 330 333 35 346 322 64 76 8 31 340 73 92 106 145 161 170 173 177
Wind_Speed_850mb
23 24 26 26 21 21 23 26 28 29 30 29 30 33 36 36 38 40 46 39 39 33 38 42 32 27 24 25 28 23 11 26 22 17 7 2 3 10 7 15 14 19 11 16 65
25 27 27 26 26 24 26 26 25 27 29 30 28 31 34 38 42 52 27 20 25 34 36 32 37 24 21 19 23 18 19 38 10 23 7 7 10 23 8 10 20 13 19 24 70
27 27 28 25 27 25 27 27 25 29 30 30 30 32 35 37 46 4 10 12 21 18 37 31 26 27 24 32 27 18 27 23 25 39 27 7 18 16 14 8 24 26 25 61 80
25 25 25 25 25 25 27 26 27 29 29 29 29 30 32 30 12 1 18 20 27 18 17 33 32 16 10 22 39 23 25 39 29 31 14 15 13 9 26 22 36 31 24 73 88
21 17 22 20 22 24 25 25 26 26 27 27 25 26 27 15 47 28 24 27 28 21 20 21 35 33 26 15 31 40 24 38 50 49 32 33 27 20 26 41 20 38 47 76 80
11 13 17 17 20 22 22 23 23 23 23 24 24 24 26 24 22 25 31 29 23 15 15 17 15 38 35 35 29 20 46 49 32 46 39 38 29 30 32 46 42 53 36 90 85
11 11 14 15 19 20 19 19 20 19 21 22 26 26 30 66 32 26 23 24 23 25 30 31 28 22 19 22 46 36 32 24 35 24 18 39 34 49 52 45 39 67 71 79 84
17 15 14 15 16 15 15 17 16 18 22 25 28 25 26 43 20 21 17 29 30 29 32 35 36 36 22 32 28 22 13 27 22 23 21 28 49 38 68 47 39 50 70 76 83
17 14 12 12 13 14 14 15 17 21 25 28 29 20 29 14 25 29 49 55 50 45 44 40 33 33 23 25 25 24 8 27 18 25 15 39 29 32 58 56 46 53 66 76 72
16 15 14 13 13 14 16 20 23 27 23 17 21 16 19 24 57 56 50 33 33 29 30 28 19 13 18 28 28 25 25 10 19 10 22 30 34 14 39 58 54 54 52 65 75
16 15 13 12 13 17 21 20 14 8 13 22 33 33 59 44 50 47 48 26 19 17 10 14 13 30 50 38 40 25 21 31 17 11 10 29 26 32 43 42 42 51 57 60 73
14 14 12 10 14 19 21 15 12 17 25 40 34 39 41 41 29 51 29 10 9 14 8 12 31 43 29 36 42 25 27 21 6 12 6 19 37 40 49 25 42 54 53 69 57
14 11 9 13 15 17 21 23 20 17 12 24 16 28 25 23 23 53 27 17 14 24 26 31 30 23 31 40 45 40 34 23 8 2 19 6 22 32 44 27 48 56 79 74 73
11 10 13 19 8 19 15 24 23 20 7 12 10 9 21 28 15 38 40 20 9 13 25 25 28 33 42 34 27 27 27 16 16 6 9 19 11 30 45 39 28 46 39 62 68
10 13 17 17 14 15 21 24 23 8 8 9 13 16 36 12 32 8 34 27 18 17 9 13 17 30 41 38 36 12 39 20 8 8 2 14 10 7 45 42 30 33 66 61 70
14 17 18 18 15 14 22 23 10 11 11 14 12 16 20 10 10 20 16 18 19 10 16 24 21 12 9 31 32 29 20 13 6 4 8 21 24 13 36 65 41 29 55 64 63
16 20 20 19 14 19 22 12 9 8 9 17 11 16 21 10 13 9 12 12 9 14 9 6 2 4 17 27 26 15 12 6 6 4 11 5 21 9 21 52 45 24 46 53 61
20 21 20 20 20 21 21 10 9 6 12 10 12 23 8 15 7 16 19 15 7 23 12 10 1 6 3 4 15 20 10 7 8 2 6 4 13 5 14 45 61 41 51 54 61
23 25 21 19 18 18 9 8 12 11 7 13 21 10 13 9 5 13 9 12 9 23 11 10 6 3 12 10 15 15 9 9 12 4 6 5 4 12 14 30 28 36 45 53 64
28 30 20 16 19 15 7 6 5 7 7 8 2 3 8 13 15 15 11 8 23 23 22 8 9 14 4 14 4 6 19 10 3 6 6 5 5 3 4 22 31 28 40 48 65
27 15 6 20 15 5 5 11 9 7 4 5 5 9 10 10 7 6 14 14 23 31 22 12 9 8 2 9 6 5 7 9 6 6 4 4 2 8 15 11 32 22 36 53 64
14 7 11 16 6 5 2 7 5 5 3 5 4 9 7 9 10 6 6 11 40 34 21 8 10 8 7 13 10 7 8 6 4 7 2 3 3 14 9 10 30 32 37 43 55
13 12 9 16 4 5 11 7 6 4 4 6 5 4 1 7 10 5 8 22 35 20 25 14 8 10 9 7 7 9 10 6 4 2 5 3 3 12 15 20 28 36 41 46 49
9 5 8 9 8 6 2 7 9 8 5 3 7 11 4 7 6 12 22 11 52 21 36 11 7 8 9 7 8 8 12 10 4 4 5 8 5 8 9 17 18 26 35 42 47
4 4 2 6 7 7 3 6 6 8 4 1 5 0 6 6 10 8 11 27 25 31 26 13 11 17 14 7 6 7 16 17 11 7 7 4 7 3 5 11 13 27 33 38 39
4 2 4 7 6 8 4 4 4 8 4 4 4 9 7 6 7 17 20 13 6 23 20 18 7 10 9 18 17 8 15 8 8 8 7 7 11 8 18 24 22 26 35 34 34
2 5 6 1 3 3 4 4 4 10 7 6 4 9 9 10 11 24 26 27 19 14 18 13 15 11 9 11 16 8 12 10 5 7 7 11 7 4 9 12 19 28 29 32 31
Wind_Direction_850mb
294 298 305 311 310 309 298 295 303 308 313 313 315 317 318 316 308 300 293 295 282 278 256 256 261 268 266 242 212 191 220 228 210 196 186 343 293 262 192 145 169 200 249 260 178
308 299 292 287 295 300 298 300 299 298 302 308 308 314 315 314 312 304 303 315 283 262 243 262 261 276 266 234 217 204 223 226 209 225 208 287 314 294 226 182 199 221 233 215 176
297 292 299 293 287 293 291 292 296 294 302 305 305 311 315 319 317 170 74 43 13 340 236 238 255 276 261 252 202 214 238 223 211 235 240 248 295 302 233 249 223 215 201 186 176
302 292 282 288 287 285 288 290 294 293 294 293 298 309 310 314 294 350 288 287 289 298 259 246 252 259 240 242 241 243 226 231 219 224 228 249 276 271 255 233 264 235 224 187 181
301 305 289 286 291 291 292 290 296 292 288 291 295 306 303 284 271 306 289 296 284 274 242 235 244 254 250 272 258 248 239 223 228 231 229 240 250 258 279 279 247 203 211 202 194
299 295 295 300 298 301 297 296 296 290 289 293 298 298 294 265 308 313 300 295 288 262 257 255 256 247 275 265 258 269 235 244 234 225 234 238 249 254 253 278 254 205 208 206 199
10 337 330 322 313 308 305 300 298 292 292 293 302 297 280 272 304 288 291 294 293 261 268 256 264 265 283 261 259 265 237 237 226 221 221 230 247 239 244 261 215 195 195 193 199
11 6 352 332 323 319 315 305 299 297 294 296 299 293 266 303 285 290 307 302 290 285 281 280 271 269 251 274 279 228 226 213 199 197 211 183 248 236 237 234 214 195 185 192 200
18 13 3 353 341 336 323 313 306 294 292 295 290 289 273 304 304 300 299 304 295 277 272 277 256 247 266 259 248 216 227 221 186 191 180 201 245 236 229 220 205 194 193 192 201
26 21 15 12 3 352 338 327 310 297 292 289 270 294 265 302 306 306 310 303 296 287 277 244 226 217 231 233 229 213 218 185 211 197 210 227 225 266 220 206 206 194 196 193 202
22 21 25 20 12 357 345 350 344 311 296 260 270 261 285 308 308 312 327 300 290 254 211 203 222 226 229 253 251 234 216 214 185 209 207 229 247 243 255 214 191 190 194 199 206
21 18 18 17 11 3 5 28 18 315 303 298 282 273 289 305 291 308 321 273 227 240 218 239 237 240 242 249 257 185 192 190 252 207 190 253 244 233 231 241 207 186 185 205 196
14 22 7 347 0 10 6 6 341 325 278 298 283 284 303 298 282 295 292 263 239 259 244 232 236 208 264 240 256 210 215 212 201 305 224 298 278 230 221 234 233 201 197 195 191
4 8 354 352 356 357 346 342 334 326 38 283 326 297 313 313 276 313 298 270 267 288 255 228 230 230 261 232 228 169 193 174 180 182 222 152 280 212 204 215 236 202 189 194 192
353 343 337 345 343 348 327 325 327 329 358 276 294 305 315 274 297 341 312 282 248 264 181 292 245 237 233 210 218 183 171 152 151 199 337 204 238 264 192 202 225 191 198 198 190
344 339 335 334 332 340 335 332 339 41 265 321 313 324 337 286 287 286 301 285 251 238 217 245 248 236 248 194 191 128 113 138 122 153 233 197 197 209 194 201 216 199 186 188 183
342 332 330 340 345 330 336 338 32 124 330 310 325 335 321 298 310 338 315 351 343 315 347 265 219 213 261 151 163 154 147 171 166 152 246 198 186 287 233 189 203 194 192 185 178
329 322 310 324 327 332 334 54 87 236 256 316 322 314 291 0 311 327 329 350 21 339 302 326 346 222 19 293 169 154 172 156 140 211 311 317 204 237 307 196 182 188 184 180 179
325 318 300 313 319 323 313 54 202 204 274 326 320 358 317 347 5 349 347 315 348 357 320 321 265 153 71 280 159 164 151 170 80 236 255 226 266 277 304 170 140 141 160 168 175
321 312 287 306 316 312 75 245 211 223 324 45 69 112 308 315 356 3 316 323 347 341 341 290 293 7 326 343 89 173 164 103 116 242 238 210 128 274 40 156 150 155 165 152 165
324 302 267 320 317 298 138 227 263 271 295 130 208 298 270 305 316 305 306 307 7 335 335 310 303 328 21 14 3 128 117 95 158 220 269 170 55 233 296 150 159 133 139 154 164
319 321 306 328 13 46 132 209 279 298 4 303 209 287 232 309 301 297 310 289 341 335 340 294 313 323 315 313 316 13 58 82 153 266 183 255 62 335 265 113 112 115 134 148 166
312 279 325 341 81 328 314 302 285 318 2 341 286 188 218 310 314 249 321 297 329 337 343 336 331 324 12 2 10 47 0 311 103 352 341 6 35 8 96 90 112 125 134 151 166
329 349 15 43 59 150 292 290 317 307 268 271 286 314 10 320 255 302 321 306 324 346 348 320 294 355 8 324 316 14 342 15 78 55 348 49 349 40 85 111 116 119 137 154 161
332 43 35 310 332 327 330 184 290 322 236 101 325 93 298 295 314 302 323 324 318 8 357 13 349 340 300 312 325 338 3 1 28 44 37 13 101 359 110 120 114 132 145 146 149
348 174 244 270 275 298 332 322 297 332 294 284 163 290 298 282 223 313 333 348 337 332 345 349 338 322 305 356 359 349 324 348 38 11 35 100 62 16 79 116 120 144 151 155 161
275 261 266 177 234 56 247 289 353 342 281 227 79 344 293 264 269 286 287 284 279 322 325 332 341 347 311 330 333 35 346 322 64 76 8 31 340 73 92 106 145 161 170 173 177